This is the latest recevied weather packets stored in our database for station/object W9LRT-WX. If no packets are shown the sender has not sent any weather packets the latest 10 day(s).
| Time | Temp. | Humidity | Pressure | Rain* | Wind** | Luminosity | Snow |
|---|---|---|---|---|---|---|---|
| 1778083622 | 11.67° C | 43% | 1012.5 hPa | 0 mm | - | 429 W/m² | - |
| 1778082722 | 11.11° C | 45% | 1012.4 hPa | 0 mm | - | 443 W/m² | - |
| 1778081823 | 11.67° C | 45% | 1012.4 hPa | 0 mm | - | 603 W/m² | - |
| 1778080922 | 11.11° C | 45% | 1012.6 hPa | 0 mm | - | 381 W/m² | - |
| 1778080022 | 10.56° C | 46% | 1012.7 hPa | 0 mm | - | 724 W/m² | - |
| 1778079121 | 10.56° C | 47% | 1012.4 hPa | 0 mm | - | 264 W/m² | - |
| 1778078222 | 10° C | 47% | 1012.4 hPa | 0 mm | - | 302 W/m² | - |
| 1778077322 | 10° C | 48% | 1012.2 hPa | 0 mm | - | 394 W/m² | - |
| 1778076427 | 10° C | 51% | 1012.1 hPa | 0 mm | - | 236 W/m² | - |
| 1778075521 | 10° C | 52% | 1012 hPa | 0 mm | - | 536 W/m² | - |
| 1778074627 | 9.44° C | 54% | 1011.8 hPa | 0 mm | - | 596 W/m² | - |
| 1778073720 | 8.89° C | 56% | 1011.4 hPa | 0 mm | - | 318 W/m² | - |
| 1778072820 | 8.33° C | 58% | 1011.3 hPa | 0 mm | - | 360 W/m² | - |
| 1778071922 | 8.33° C | 62% | 1011.2 hPa | 0 mm | - | 179 W/m² | - |
| 1778071013 | 7.78° C | 64% | 1011.1 hPa | 0 mm | - | 262 W/m² | - |
| 1778070112 | 7.22° C | 68% | 1011 hPa | 0 mm | - | 102 W/m² | - |
| 1778069212 | 7.22° C | 67% | 1011.1 hPa | 0 mm | - | 109 W/m² | - |
| 1778068311 | 7.22° C | 69% | 1010.9 hPa | 0 mm | - | 221 W/m² | - |
| 1778067412 | 6.67° C | 70% | 1010.5 hPa | 0 mm | - | 107 W/m² | - |
| 1778066512 | 6.11° C | 72% | 1010.3 hPa | 0 mm | - | 60 W/m² | - |
| 1778065612 | 5.56° C | 73% | 1010 hPa | 0 mm | - | 26 W/m² | - |
| 1778064712 | 5.56° C | 74% | 1009.8 hPa | 0 mm | - | 12 W/m² | - |
| 1778063814 | 5.56° C | 74% | 1009.7 hPa | 0 mm | - | 0 W/m² | - |
| 1778062909 | 6.11° C | 74% | 1009.6 hPa | 0 mm | - | 0 W/m² | - |
| 1778062008 | 6.11° C | 74% | 1009.7 hPa | 0 mm | - | 0 W/m² | - |
* Rain latest hour (hover to see other rain measurements)
** Current wind speed in m/s (hover to see current wind gust speed)